|   |  | Asteroid 2014 OT111
					
					
					
					
						
					
					
						
							(Preview) 
						
							
								Orbital elements:
2014 OT111                                          PHA, Earth MOID = 0.0328 AU
Epoch 2014 May 23.0 TT = JDT 2456800.5                  MPC
M 349.95396              (2000.0)            P               Q
n   0.29881623     Peri.  320.30531     -0.03644040     +0.99265678
a   2.2158138      Node   307.29846     -0.87608866     -0.08726131
e   0.5540618      Incl.    8.33725     -0.48077100     +0.08377342
P   3.30           H... | Blobrana | 0 |  |  | 
		
			
			
				
				
					|   |  | Asteroid 2014 OD4
					
					
					
					
						
					
					
						
							(Preview) 
						
							
								The 33 - 74 metre wide asteroid 2014 OD4 made a close pass (32.6 lunar distances, 0.0837 AU), travelling at 9.65 km/second, to the Earth-Moon system on the 27th July 2014 @ 12:44 UT ±00:03.  See more The Lunar Distance (LD), the distance between Earth and the Moon, equals 384,401 km, (or 0.00256 AU). | Blobrana | 0 |  |  | 
		
			
			
				
				
					|   |  | Asteroid 2008 LV16
					
					
					
					
						
					
					
						
							(Preview) 
						
							
								The 230 - 520 metre wide asteroid 2008 LV16 will make a close pass (52.9 lunar distances, 0.1360 AU), travelling at 12.33 km/second, to the Earth-Moon system on the 29th July 2014 @ 17:16 UT ±00:01.  See more The Lunar Distance (LD), the distance between Earth and the Moon, equals 384,401 km, (or 0.002...  | Blobrana | 0 |  |  | 
		
			
			
				
				
					|   |  | Asteroid 2014 DM22
					
					
					
					
						
					
					
						
							(Preview) 
						
							
								Orbital elements:
2014 DM22                                           PHA, Earth MOID = 0.0027 AU
Epoch 2013 Nov. 4.0 TT = JDT 2456600.5                  MPC
M 269.88836              (2000.0)            P               Q
n   0.40650304     Peri.  112.60111     -0.40103930     +0.70761852
a   1.8047907      Node   119.94383     -0.86542035     -0.50088639
e   0.5595482      Incl.   42.17349     +0.30035829     -0.49838625
P   2.42           H... | Blobrana | 1 |  |  | 
		
			
			
				
				
					|   |  | Asteroid 2014 OX3
					
					
					
					
						
					
					
						
							(Preview) 
						
							
								The 7 - 16 metre wide asteroid 2014 OX3 made a close pass (2.2 lunar distances, 0.0058 AU), travelling at 12.65 km/second, to the Earth-Moon system on the 21st July 2014 @ 19:40 UT ±00:02.  See more The Lunar Distance (LD), the distance between Earth and the Moon, equals 384,401 km, (or 0.00256 AU). | Blobrana | 0 |  |  | 
		
			
			
				
				
					|   |  | Asteroid 2014 OW3
					
					
					
					
						
					
					
						
							(Preview) 
						
							
								Orbital elements:
2014 OW3                                                 Earth MOID = 0.0013 AU
Epoch 2014 May 23.0 TT = JDT 2456800.5                  MPC
M 311.38145              (2000.0)            P               Q
n   0.42002413     Peri.  106.23063     +0.61527883     -0.77971983
a   1.7658476      Node   305.21670     +0.65809765     +0.58909930
e   0.7397453      Incl.    8.16679     +0.43398093     +0.21212970
P   2.35           H   22.4           G   0...                   | Blobrana | 0 |  |  | 
		
			
			
				
				
					|   |  | Asteroid 2006 TS7
					
					
					
					
						
					
					
						
							(Preview) 
						
							
								The 150 - 340 metre wide asteroid 2006 TS7 made a close pass (39.5 lunar distances, 0.1015 AU), travelling at 16.39 km/second, to the Earth-Moon system on the 17th July 2014 @ 08:09 UT ±03:31.  See more The Lunar Distance (LD), the distance between Earth and the Moon, equals 384,401 km, (or 0.00256 AU)... | Blobrana | 1 |  |  | 
		
			
			
				
				
					|   |  | Asteroid 2010 UK8
					
					
					
					
						
					
					
						
							(Preview) 
						
							
								Orbital elements:
2010 UK8                                            PHA, Earth MOID = 0.0198 AU
Epoch 2014 May 23.0 TT = JDT 2456800.5                  MPC
M   9.25154              (2000.0)            P               Q
n   0.30530139     Peri.  135.40843     -0.83818571     -0.54534585
a   2.1843230      Node    11.54845     +0.49083272     -0.75951060
e   0.7005574      Incl.    1.86884     +0.23775611     -0.35460055
P   3.23           H   19.9           G... | Blobrana | 0 |  |  | 
		
			
			
				
				
					|   |  | Asteroid 2014 OP2
					
					
					
					
						
					
					
						
							(Preview) 
						
							
								Orbital elements:
2014 OP2                                                 Earth MOID = 0.0007 AU
Epoch 2014 May 23.0 TT = JDT 2456800.5                  MPC
M 351.26042              (2000.0)            P               Q
n   0.26641909     Peri.  139.87597     -0.13202503     +0.99089790
a   2.3919888      Node   122.52214     -0.91725430     -0.11207542
e   0.6104789      Incl.    1.78620     -0.37578442     -0.07456847
P   3.70           H   29.1           G   0...                   | Blobrana | 0 |  |  | 
		
			
			
				
				
					|   |  | Comet P/2003 WC7 (LINEAR-Catalina)
					
					
					
					
						
					
					
						
							(Preview) 
						
							
								Comet P/2003 WC7 (LINEAR-Catalina) is at Opposition (3.568 AU) on the 27th July 2014  EphemerisDate    TT    R. A. (2000) Decl.     Delta      r     Elong.  Phase   Mag
2014 07 25    20 48 10.5 -34 55 35   3.5853  4.5675   163.3     3.7  22.9
2014 07 26    20 47 24.8 -35 00 41   3.5792  4.5618   163.4     3.6  22.9
2014 07 27    20 46 38.6 -35 05 43   3.5733  4.... | Blobrana | 0 |  |  | 
		
			
			
				
				
					|   |  | Asteroid (172) Baucis
					
					
					
					
						
					
					
						
							(Preview) 
						
							
								On 2014 Mar 24 UT, the 67 km diameter asteroid (172) Baucis will occult a 6.7 mag star in the constellation Sagittarius for observers along a path across.  Read more | Blobrana | 1 |  |  | 
		
			
			
				
				
					|   |  | Asteroid 2013 QV1
					
					
					
					
						
					
					
						
							(Preview) 
						
							
								The 110 - 240 metre wide asteroid 2013 QV1 will make a close pass (70.6 lunar distances, 0.1814 AU), travelling at 13.16 km/second, to the Earth-Moon system on the 26th July 2014 @ 20:56 UT ±00:02.  See more The Lunar Distance (LD), the distance between Earth and the Moon, equals 384,401 km, (or 0.0025...  | Blobrana | 0 |  |  | 
		
			
			
				
				
					|   |  | Asteroid 2014 OA2
					
					
					
					
						
					
					
						
							(Preview) 
						
							
								Orbital elements:
2014 OA2                                                 Earth MOID = 0.1592 AU
Epoch 2014 May 23.0 TT = JDT 2456800.5                  MPC
M 328.96935              (2000.0)            P               Q
n   0.48517032     Peri.  184.19713     +0.54468414     +0.83329783
a   1.6040081      Node   118.83152     -0.76626314     +0.54030803
e   0.2672639      Incl.    6.19391     -0.34082251     +0.11696993
P   2.03           H   21.5           G   0...                   | Blobrana | 0 |  |  | 
		
			
			
				
				
					|   |  | Asteroid 2014 OY1
					
					
					
					
						
					
					
						
							(Preview) 
						
							
								Orbital elements:
2014 OY1                                            PHA, Earth MOID = 0.0426 AU
Epoch 2014 May 23.0 TT = JDT 2456800.5                  MPC
M 357.70298              (2000.0)            P               Q
n   0.23705240     Peri.  186.80685     -0.12671675     +0.91663128
a   2.5856703      Node    76.43990     -0.89071133     +0.06305796
e   0.6251232      Incl.   22.95378     -0.43655034     -0.39472876
P   4.16           H   19... | Blobrana | 0 |  |  | 
		
			
			
				
				
					|   |  | Asteroid 2014 MG55
					
					
					
					
						
					
					
						
							(Preview) 
						
							
								The 39 - 86 metre wide asteroid 2014 MG55 will make a close pass (26.3 lunar distances, 0.0675 AU), travelling at 7.87 km/second, to the Earth-Moon system on the 25th July 2014 @ 12:28 UT ±00:03.  See more The Lunar Distance (LD), the distance between Earth and the Moon, equals 384,401 km, (or 0.00256 A... | Blobrana | 0 |  |  |